Location: Unspecified
(43.4680°N, 87.1740°E)
Time: 12:17:25
(UTC+00:00)

NOAA 15 - Pass Details

Date: 17 January 2020
Orbit: 798 x 812 km, 98.7° (Epoch: 20 February)

Event Time Altitude Azimuth Distance (km) Brightness Sun altitude
Rises 12:34:08 0° 162° (SSE) 3,293 7.7 -16.4°
Reaches altitude 10° 12:36:27 10° 162° (SSE) 2,368 7.0 -16.8°
Maximum altitude 12:41:41 84° 75° (ENE) 812 4.5 -17.7°
Drops below altitude 10° 12:46:59 10° 347° (NNW) 2,393 7.1 -18.7°
Sets 12:49:20 0° 347° (NNW) 3,330 7.8 -19.1°
